Regional Weather Roundup
Issued by NWS

Home | Current Version | Previous Version | Graphics & Text | Print | Product List | Glossary On
Versions: 1 2 3 4 5 6 7 8 9 10 11 12 13 14 15 16 17 18 19 20 21 22 23 24 25 26 27
000
ASUS45 KBOU 250307
RWRCO

WEATHER ROUNDUP FOR COLORADO
NATIONAL WEATHER SERVICE DENVER/BOULDER CO
900 PM MDT FRI MAR 24 2017

NOTE: "FAIR" INDICATES FEW OR NO CLOUDS BELOW 12000 FEET WITH NO
SIGNIFICANT WEATHER AND/OR OBSTRUCTIONS TO VISIBILITY.

COZ001>005-013-030-031-250400-
...NORTHWEST COLORADO...

CITY           SKY/WX    TMP DP  RH WIND       PRES   REMARKS
CRAIG          FAIR      40  24  53 CALM      30.15R
HAYDEN         FAIR      41  19  42 S6        30.16R
MEEKER         FAIR      36  24  62 NE7       30.15R
MOUNT WERNER   NOT AVBL
STEAMBOAT SPGS FAIR      41  25  52 E3        30.16S
WALDEN         NOT AVBL
$$

COZ006>008-011-250400-
...WEST CENTRAL VALLEYS...

CITY           SKY/WX    TMP DP  RH WIND       PRES   REMARKS
GRAND JUNCTION FAIR      51  27  39 E5        30.11R
MONTROSE       FAIR      46  30  53 SE10      30.18R
EAGLE          CLEAR     46  25  42 CALM      30.18R
RIFLE          FAIR      47  27  45 E3        30.14R
DELTA          FAIR      50  28  41 N7        30.14S
NUCLA          FAIR      45  28  53 CALM      30.19R
$$

COZ017>023-064>068-250400-
...SOUTHWEST COLORADO...

CITY           SKY/WX    TMP DP  RH WIND       PRES   REMARKS
DURANGO        FAIR      45  24  43 SW7       30.13R
CORTEZ         FAIR      44  28  53 CALM      30.17R
PAGOSA SPRINGS FAIR      42  35  75 CALM      30.19R
TELLURIDE      NOT AVBL
WOLF CREEK PAS FAIR      28  10  47 SW8       30.37R WCI  20
$$

COZ009-010-012-014-032>034-037-058>063-250400-
...CENTRAL COLORADO...

CITY           SKY/WX    TMP DP  RH WIND       PRES   REMARKS
ASPEN          FAIR      37  29  72 SW9       30.20R
BUENA VISTA    FAIR      39  22  50 E6        30.20R
COPPER MTN     NOT AVBL
BERTHOUD PASS  MOCLDY    18   7  62 NW25      30.25S WCI  -1
COTTONWOOD PAS FAIR      37  18  44 SW9G16    30.24R
GUNNISON       FAIR      39  27  62 S5        30.23R
KREMMLING      FAIR      43  23  45 CALM      30.19R
LEADVILLE      FAIR      29  18  63 NE5       30.24R WCI  24
MONARCH PASS   FAIR      25  19  80 W26       30.39R WCI   9
SALIDA         FAIR      43  26  50 S5        30.27R
SUNLIGHT       FAIR      27  21  80 SW7       30.32S WCI  19
WILKERSON PASS CLOUDY    25  21  86 NW7G17    30.26S WCI  17
$$

COZ069>075-250400-
...SAN LUIS VALLEY/SANGRE DE CRISTO MOUNTAINS...

CITY           SKY/WX    TMP DP  RH WIND       PRES   REMARKS
ALAMOSA        FAIR      33  29  85 SE5       30.19R WCI  29
LA VETA PASS   NOT AVBL
SAGUACHE       FAIR      41  23  48 NW9       30.21R
$$

COZ035-036-038>040-250400-
...NORTHERN COLORADO FRONT RANGE...

CITY           SKY/WX    TMP DP  RH WIND       PRES   REMARKS
DENVER INTL AP FAIR      39  31  72 S12       30.14S
DMNS CITY PARK   N/A     44  33  64 E7        30.14S
AURORA         CLEAR     38  33  84 S7        30.16R
FRONT RANGE AP PTCLDY    39  32  75 S7        30.16
ERIE MUNI ARPT FAIR      39  31  73 CALM      30.14S
BOULDER MUN AP FAIR      43  32  65 CALM      30.13S
CENTENNIAL     FAIR      36  32  85 S6        30.15S
BROOMFIELD     PTCLDY    45  30  57 CALM      30.14S
FORT COLLINS   FAIR      42  28  57 SE6       30.14R
LONGMONT       FAIR      45  30  56 CALM      30.16S
$$

COZ041-046-047-076>085-087-088-250400-
...PIKES PEAK/PALMER DIVIDE AND SOUTHERN FOOTHILLS...

CITY           SKY/WX    TMP DP  RH WIND       PRES   REMARKS
COLO. SPRINGS  FAIR      36  29  75 N6        30.18R
A. F. ACADEMY  FAIR      33  31  93 NW5       30.17R WCI  28
SCHRIEVER AFB  FAIR      37  30  75 NW10      30.17F
ELLICOTT         N/A    N/A N/A N/A N6        30.16S
FALCON         FAIR      34  29  82 NW6       30.19R WCI  29
FORT CARSON    NOT AVBL
LIMON          FAIR      33  32  96 W8        30.15R WCI  26
MONUMENT HILL  FAIR      30  28  93 W5        30.19S WCI  25
TRINIDAD       FAIR      36  31  82 W9        30.19R
$$

COZ042>045-048>051-090-091-250400-
...NORTHEAST COLORADO...

CITY           SKY/WX    TMP DP  RH WIND       PRES   REMARKS
GREELEY ARPT   FAIR      42  29  59 CALM      30.15R
AKRON          FAIR      37  34  89 SW3       30.12S
BURLINGTON     FAIR      37  35  92 N14       30.10S
WRAY           FAIR      36  36 100 NW8       30.11S
STERLING       FAIR      41  36  81 CALM      30.12R
HOLYOKE        FAIR      39  36  87 W8        30.12S
FORT MORGAN    FAIR      38  32  79 S3        30.13R
$$

COZ086-089-092>099-250400-
...SOUTHEAST COLORADO...

CITY           SKY/WX    TMP DP  RH WIND       PRES   REMARKS
PUEBLO         FAIR      44  32  62 W5        30.17R
LA JUNTA       FAIR      41  37  86 N5        30.15R
LAMAR          FAIR      38  32  79 N8        30.10R
SPRINGFIELD      N/A     36  33  89 N22G29    30.08R
$$




USA.gov is the U.S. government's official web portal to all federal, state and local government web resources and services.